www.pogodaiklimat.ru

Погода и климат >> Архив погоды >> Китай >> Цзяньси >> Цзиань


ПОГОДА в Цзиане

  • Прогноз погоды в Цзиане
  • Монитор погоды в Цзиане

АРХИВ ПОГОДЫ в Цзиане

Время (UTC), дата Ветер
(напр.,м/с)
 
Видим.   Явления Облачность Т
(С)
Тd
(С)
f
(%)
Тe
(С)
Тes
(С)
Комфортность P
(гПа)
Po
(гПа)
Тmin
(С)
Tmax
(С)
R
(мм)
R24
(мм)
S
(см)
00 13.09 С 1 12 км 3/3
[]
+28.3 +22.3 70 +37 +40 очень
душно
1009.7 1001.5
03 13.09 В 1 12 км ясно +34.3 +23.3 53 +45 +64 опасность
перегрева
1009.0 1000.3
06 13.09 В 2 13 км 9/9 600 м
[]
+36.6 +22.4 44 +45 +47 опасность
перегрева
1006.5 998.4 +26.8
09 13.09 С 1 13 км 3/3 600 м
[]
+37.4 +20.7 38 +44 +46 опасность
перегрева
1005.7 997.1
12 13.09 В 1 13 км ясно +33.4 +21.6 50 +41 +41 опасность
перегрева
1007.3 999.1
15 13.09 С 1 10 км н/о +30.8 +22.4 61 +40 +40 очень
душно
1007.9 999.1
18 13.09 З 1 11 км н/о +28.3 +23.0 73 +38 +38 очень
душно
1008.0 999.9 +38.0
21 13.09 С 1 12 км н/о +27.0 +22.2 75 +35 +35 очень
душно
1008.4 999.5
00 14.09 С 1 10 км ясно +28.5 +23.0 72 +38 +42 очень
душно
1009.8 1001.6
03 14.09 С 1 13 км 1/1
[]
+34.0 +24.3 57 +46 +63 опасность
перегрева
1009.5 1000.8
06 14.09 С 1 14 км 4/4 600 м
[]
+36.5 +23.0 46 +46 +57 опасность
перегрева
1007.2 999.1 +26.6
09 14.09 С 5 14 км 1/1
[]
+35.8 +22.0 45 +44 +45 опасность
перегрева
1006.3 997.7
12 14.09 С 3 13 км 1/1
[]
+32.4 +22.5 56 +42 +42 опасность
перегрева
1008.1 999.9
15 14.09 С 1 14 км н/о +30.5 +21.0 57 +38 +38 очень
душно
1009.6 1000.8
18 14.09 С 1 13 км н/о +28.4 +22.9 72 +38 +38 очень
душно
1008.9 1000.8 +37.7
21 14.09 СЗ 1 12 км н/о +26.9 +22.3 76 +35 +35 очень
душно
1009.2 1000.3
00 15.09 С 2 9000 м ясно +28.2 +23.1 74 +38 +41 очень
душно
1010.4 1002.2
03 15.09 В 1 12 км 3/3 600 м
[]
+32.4 +22.5 56 +42 +55 опасность
перегрева
1010.1 1001.3
06 15.09 ЮЗ 2 13 км 3/3 600 м
[]
+35.4 +22.0 46 +44 +54 опасность
перегрева
1007.4 999.3 +26.5
09 15.09 С 4 13 км 1/1 600 м
[]
+34.6 +21.3 46 +42 +43 опасность
перегрева
1006.6 997.9
12 15.09 С 2 13 км ясно +31.7 +21.8 56 +40 +40 очень
душно
1008.4 1000.2
15 15.09 С 2 13 км н/о +29.6 +21.5 62 +38 +38 очень
душно
1009.4 1000.6
18 15.09 штиль 0 12 км н/о +27.5 +22.9 76 +37 +37 очень
душно
1009.0 1000.8 +36.1
21 15.09 С 1 12 км н/о +26.3 +22.8 81 +35 +35 очень
душно
1009.4 1000.5
00 16.09 С 2 10 км 3/3
[]
+26.9 +22.9 79 +36 +38 очень
душно
1011.3 1003.1
03 16.09 С 2 11 км 9/9 600 м
[]
+31.6 +23.2 61 +42 +44 опасность
перегрева
1011.0 1002.2
06 16.09 СВ 2 13 км 9/9 600 м
[]
+33.8 +21.9 50 +42 +44 опасность
перегрева
1008.4 1000.2 +26.2
09 16.09 В 3 13 км 9/9 600 м
[]
+33.4 +21.9 51 +42 +42 опасность
перегрева
1007.0 998.3
12 16.09 С 2 14 км 9/9
[]
+30.3 +21.7 60 +39 +39 очень
душно
1008.6 1000.4
15 16.09 С 4 13 км н/о +28.1 +21.4 67 +36 +36 очень
душно
1010.2 1001.3
18 16.09 С 2 14 км н/о +26.2 +20.5 71 +33 +33 очень
душно
1010.5 1002.3 +34.4
21 16.09 С 3 14 км н/о +25.0 +19.6 72 +30 +30 душно 1011.5 1002.5
00 17.09 С 3 13 км ясно +25.8 +19.9 70 +32 +34 очень
душно
1013.7 1005.4
03 17.09 С 3 14 км ясно +30.4 +19.4 52 +36 +49 очень
душно
1013.5 1004.6
06 17.09 З 1 14 км ясно +33.3 +20.1 46 +40 +57 опасность
солнечного
удара
1010.5 1002.3 +24.9
09 17.09 С 4 14 км ясно +33.0 +19.5 45 +39 +40 очень
душно
1010.0 1001.2
12 17.09 В 3 14 км ясно +30.0 +19.7 54 +36 +36 очень
душно
1012.4 1004.1
15 17.09 С 2 14 км н/о +27.7 +19.2 60 +33 +33 очень
душно
1013.7 1004.8
18 17.09 С 3 13 км н/о +26.0 +18.9 65 +31 +31 очень
душно
1013.9 1005.7 +34.5
21 17.09 С 4 13 км н/о +24.6 +18.1 67 +29 +29 душно 1014.7 1005.7
00 18.09 СВ 3 12 км ясно +25.5 +18.2 64 +30 +33 душно 1017.1 1008.8
03 18.09 С 3 14 км 3/3 600 м
[]
+29.8 +18.3 50 +35 +44 очень
душно
1016.9 1008.0
06 18.09 С 7 14 км 8/8 600 м
[]
+31.0 +17.3 44 +35 +36 очень
душно
1014.5 1006.2 +24.2
09 18.09 С 5 13 км 3/3 600 м
[]
+30.1 +17.6 47 +34 +35 очень
душно
1014.5 1005.6
12 18.09 С 2 14 км ясно +27.8 +16.1 49 +31 +31 душно 1016.0 1007.7
15 18.09 С 2 14 км н/о +25.6 +14.7 51 +28 +28 жарко 1016.7 1007.7
18 18.09 СЗ 1 15 км н/о +23.7 +13.6 53 +26 +26 жарко 1016.1 1007.8 +31.5
21 18.09 С 1 15 км н/о +22.2 +13.8 59 +25 +25 комфорт 1016.6 1007.5
00 19.09 С 2 14 км ясно +24.6 +14.7 54 +27 +30 жарко 1018.0 1009.6
03 19.09 В 3 14 км ясно +29.4 +12.8 36 +31 +43 жарко 1016.7 1007.8
06 19.09 С 2 15 км ясно +31.5 +12.3 31 +32 +47 жарко 1013.6 1005.3 +21.6
09 19.09 С 4 15 км ясно +30.9 +9.7 27 +30 +32 жарко 1012.9 1004.1
12 19.09 СВ 1 15 км ясно +27.2 +9.5 33 +28 +28 жарко 1014.2 1005.8
15 19.09 штиль 0 15 км н/о +23.6 +12.9 51 +26 +26 жарко 1014.2 1005.1
18 19.09 штиль 0 15 км н/о +21.3 +13.5 61 +24 +24 комфорт 1013.6 1005.3 +32.1
21 19.09 штиль 0 16 км н/о +20.3 +12.8 62 +22 +22 комфорт 1013.8 1004.6

 

Местоположение метеостанции Цзиань (Цзяньси, Китай): широта 27.12 долгота 114.96 высота над уровнем моря 78 м.

В архиве по умолчанию представлена погода в Цзиане за последнюю неделю. Архивные данные за месяц целиком и за предыдущие месяцы, начиная с января 2011 года, Вы можете получить, выбрав интересующий диапазон дат из раскрывающегося списка и нажав кнопку "Ввод!".


*Определитесь, кто Вы:
робот инопланетянин человек

Внимание! Время в таблицах - всемирное. Для получения местного времени необходимо прибавить поправку, которая равна 8 ч.

Смотрите также архив погоды в соседних городах и на ближайших метеорологических станциях:

Погода в Ичуне (Хэйлунцзян, Китай) (95 км)
Погода в Гуанчане (Цзяньси, Китай) (139 км)
Погода в Ганьчжоу (Цзяньси, Китай) (139 км)
Погода в Наньчене (Цзяньси, Китай) (175 км)
Погода в Наньчане (Цзяньси, Китай) (189 км)
Погода в Чантине (Фуцзянь, Китай) (198 км)
Погода в Сьюши (Цзяньси, Китай) (216 км)
Погода в Намвьете (Хунань, Китай) (224 км)
Погода в Чанше (Хунань, Китай) (241 км)
Погода в Чэньчжоу (Хунань, Китай) (242 км)

Пояснения к столбцам:

Ветер - указаны скорость ветра в м/с - средняя за 10 мин, порывы в срок и между сроками (в фигурных скобках) и направление, откуда дует ветер: С - северный, СВ - северо-восточный, В - восточный, ЮВ - юго-восточный, Ю - южный, ЮЗ - юго-западный, З - западный, СЗ - северо-западный.
Видимость - горизонтальная дальность видимости в метрах или километрах. При видимости от 1 до 10 км при отсутствии осадков обычно наблюдается дымка, при ухудшении видимости до 1 км и менее - туман. В сухую погоду видимость может ухудшаться дымом, пылью или мглою.
Явления - указаны атмосферные явления, наблюдавшиеся в срок или в последний час перед сроком; фигурными скобками обозначены явления, наблюдавшиеся между сроками (за 1-3 часа до срока); квадратными скобками обозначены град или гололедные отложения с указанием их диаметра в мм.
Облачность - указаны через наклонную черту общая и нижняя облачность в баллах и высота нижней границы облаков в метрах; квадратными скобками обозначены формы облаков: Ci - перистые, Cs - перисто-слоистые, Cc - перисто-кучевые, Ac - высококучевые, As - высокослоистые, Sc - слоисто-кучевые, Ns - слоисто-дождевые, Cu - кучевые, Cb - кучево-дождевые. Подробнее классификацию облаков см. в Атласе облаков (PDF).
T - Температура воздуха - температура, измеренная на высоте 2 м над землей.
Td - Температура точки росы - температура, при понижении до которой содержащийся в воздухе водяной пар достигнет насыщения.
f - Относительная влажность воздуха - влажноcть воздуха, измеренная на высоте 2 м над землей.
Te - Эффективная температура - температура, которую ощущает одетый по сезону человек в тени. Характеристика душности погоды. При расчете учитывается влияние влажности воздуха и скорости ветра на теплоощущения человека.
Tes - Эффективная температура на солнце - температура, которую ощущает человек, с поправкой на солнечный нагрев. Характеристика знойности погоды. Зависит от высоты солнца над горизонтом, облачности и скорости ветра. Ночью, в пасмурную погоду, а также при ветре 12 м/с и более поправка равна нулю.
P - Атмосферное давление - приведенное к уровню моря атмосферное давление.
Po - Атмосферное давление - измеренное на уровне метеостанции атмосферное давление.
Tmin - Минимальная температура - минимум температуры воздуха на высоте 2 м над землей.
Tmax - Максимальная температура - максимум температуры воздуха на высоте 2 м над землей.
R - Количество осадков - Количество выпавших осадков за период времени, мм. При наведении курсора мыши на число - период времени, за который выпало указанное количество осадков.
R24 - Количество осадков - Количество выпавших осадков за 24 часа, мм.
S - Снежный покров - Высота снежного покрова, см. При наведении курсора мыши на число - состояние снежного покрова и степень покрытия местности в баллах.